Time,TemperatureF,DewpointF,PressureIn,WindDirection,WindDirectionDegrees,WindSpeedMPH,WindSpeedGustMPH,Humidity,HourlyPrecipIn,Conditions,Clouds,dailyrainin,SoftwareType,DateUTC
2013-02-03 00:00:00,61.3,49.9,30.11,North,5,6.0,6.0,66,0.00,,---,0.00,VWS V14.00,2013-02-03 08:00:00,
2013-02-03 00:02:00,61.9,49.6,30.12,NE,35,0.0,7.0,64,0.00,,---,0.00,VWS V14.00,2013-02-03 08:02:00,
2013-02-03 00:13:00,61.4,50.0,30.12,NNW,330,1.0,5.0,66,0.00,,,0.00,weatherlink.com 1.10,2013-02-03 08:13:00,
2013-02-03 00:29:00,61.3,50.0,30.11,NNW,333,3.0,8.0,67,0.00,,,0.00,weatherlink.com 1.10,2013-02-03 08:29:00,
2013-02-03 00:30:00,62.5,51.0,30.11,ESE,110,0.0,6.0,66,0.00,,---,0.00,VWS V14.00,2013-02-03 08:30:00,
2013-02-03 00:32:00,61.3,50.7,30.11,North,351,3.0,7.0,68,0.00,,---,0.00,VWS V14.00,2013-02-03 08:32:00,
2013-02-03 00:47:00,60.6,51.0,30.11,NW,326,2.0,4.0,71,0.00,,,0.00,weatherlink.com 1.10,2013-02-03 08:47:00,
2013-02-03 01:00:00,62.7,49.5,30.10,NNE,22,0.0,6.0,62,0.00,,---,0.00,VWS V14.00,2013-02-03 09:00:00,
2013-02-03 01:02:00,61.3,49.9,30.11,North,5,6.0,6.0,66,0.00,,---,0.00,VWS V14.00,2013-02-03 09:02:00,
2013-02-03 01:21:00,63.0,49.0,30.11,NE,38,0.0,7.0,60,0.00,,,0.00,weatherlink.com 1.10,2013-02-03 09:21:00,
2013-02-03 01:30:00,59.4,51.8,30.09,East,94,1.0,5.0,76,0.00,,---,0.00,VWS V14.00,2013-02-03 09:30:00,
2013-02-03 01:32:00,62.5,51.0,30.11,ESE,110,0.0,6.0,66,0.00,,---,0.00,VWS V14.00,2013-02-03 09:32:00,
2013-02-03 01:39:00,61.4,52.0,30.11,ESE,116,1.0,3.0,71,0.00,,,0.00,weatherlink.com 1.10,2013-02-03 09:39:00,
2013-02-03 01:56:00,62.6,49.0,30.11,North,5,4.0,5.0,61,0.00,,,0.00,weatherlink.com 1.10,2013-02-03 09:56:00,
2013-02-03 02:00:00,59.9,50.9,30.09,ENE,65,0.0,5.0,72,0.00,,---,0.00,VWS V14.00,2013-02-03 10:00:00,
2013-02-03 02:02:00,62.7,49.5,30.10,NNE,22,0.0,6.0,62,0.00,,---,0.00,VWS V14.00,2013-02-03 10:02:00,
2013-02-03 02:13:00,61.1,52.0,30.10,SE,127,1.0,4.0,72,0.00,,,0.00,weatherlink.com 1.10,2013-02-03 10:13:00,
2013-02-03 02:30:00,59.3,52.0,30.10,ESE,103,1.0,5.0,76,0.00,,,0.00,weatherlink.com 1.10,2013-02-03 10:30:00,
2013-02-03 02:49:00,59.5,52.0,30.09,ESE,113,0.0,4.0,75,0.00,,,0.00,weatherlink.com 1.10,2013-02-03 10:49:00,
2013-02-03 03:00:00,61.7,48.6,30.07,NE,50,2.0,7.0,62,0.00,,---,0.00,VWS V14.00,2013-02-03 11:00:00,
2013-02-03 03:02:00,59.9,50.9,30.09,ENE,65,0.0,5.0,72,0.00,,---,0.00,VWS V14.00,2013-02-03 11:02:00,
2013-02-03 03:05:00,60.0,50.0,30.09,East,84,5.0,6.0,70,0.00,,,0.00,weatherlink.com 1.10,2013-02-03 11:05:00,
2013-02-03 03:22:00,61.4,49.0,30.09,NE,52,1.0,4.0,64,0.00,,,0.00,weatherlink.com 1.10,2013-02-03 11:22:00,
2013-02-03 03:30:00,62.2,47.7,30.07,NW,315,0.0,7.0,59,0.00,,---,0.00,VWS V14.00,2013-02-03 11:30:00,
2013-02-03 03:32:00,61.6,49.3,30.08,East,96,0.0,6.0,64,0.00,,---,0.00,VWS V14.00,2013-02-03 11:32:00,
2013-02-03 03:40:00,61.3,49.0,30.09,East,81,0.0,3.0,65,0.00,,,0.00,weatherlink.com 1.10,2013-02-03 11:40:00,
2013-02-03 03:57:00,61.6,48.0,30.07,NE,50,4.0,9.0,62,0.00,,,0.00,weatherlink.com 1.10,2013-02-03 11:57:00,
2013-02-03 04:00:00,60.5,51.1,30.08,WNW,285,3.0,10.0,71,0.00,,---,0.00,VWS V14.00,2013-02-03 12:00:00,
2013-02-03 04:02:00,61.7,48.6,30.07,NE,50,2.0,7.0,62,0.00,,---,0.00,VWS V14.00,2013-02-03 12:02:00,
2013-02-03 04:14:00,61.8,48.0,30.07,North,10,1.0,7.0,61,0.00,,,0.00,weatherlink.com 1.10,2013-02-03 12:14:00,
2013-02-03 04:30:00,58.8,51.6,30.07,West,275,0.0,6.0,77,0.00,,---,0.00,VWS V14.00,2013-02-03 12:30:00,
2013-02-03 04:32:00,62.2,47.0,30.07,NW,315,0.0,0.0,59,0.00,,,0.00,weatherlink.com 1.10,2013-02-03 12:32:00,
2013-02-03 04:48:00,62.4,47.0,30.07,NW,326,0.0,1.0,58,0.00,,,0.00,weatherlink.com 1.10,2013-02-03 12:48:00,
2013-02-03 05:00:00,57.1,52.0,30.07,NW,306,2.0,4.0,83,0.00,,---,0.00,VWS V14.00,2013-02-03 13:00:00,
2013-02-03 05:02:00,60.5,51.1,30.08,WNW,285,3.0,10.0,71,0.00,,---,0.00,VWS V14.00,2013-02-03 13:02:00,
2013-02-03 05:24:00,59.1,52.0,30.07,West,266,3.0,6.0,76,0.00,,,0.00,weatherlink.com 1.10,2013-02-03 13:24:00,
2013-02-03 05:30:00,57.1,52.3,30.07,NW,306,0.0,3.0,84,0.00,,---,0.00,VWS V14.00,2013-02-03 13:30:00,
2013-02-03 05:32:00,58.8,51.6,30.07,West,275,0.0,6.0,77,0.00,,---,0.00,VWS V14.00,2013-02-03 13:32:00,
2013-02-03 05:40:00,58.3,52.0,30.07,West,263,4.0,4.0,79,0.00,,,0.00,weatherlink.com 1.10,2013-02-03 13:40:00,
2013-02-03 05:58:00,57.3,52.0,30.07,WNW,300,3.0,4.0,83,0.00,,,0.00,weatherlink.com 1.10,2013-02-03 13:58:00,
2013-02-03 06:00:00,56.8,50.4,30.08,ENE,72,2.0,2.0,79,0.00,,---,0.00,VWS V14.00,2013-02-03 14:00:00,
2013-02-03 06:15:00,57.0,52.0,30.07,NW,307,0.0,3.0,84,0.00,,,0.00,weatherlink.com 1.10,2013-02-03 14:15:00,
2013-02-03 06:30:00,57.5,50.4,30.08,ESE,119,1.0,4.0,77,0.00,,---,0.00,VWS V14.00,2013-02-03 14:30:00,
2013-02-03 06:31:00,57.1,52.0,30.07,NW,306,0.0,2.0,84,0.00,,,0.00,weatherlink.com 1.10,2013-02-03 14:31:00,
2013-02-03 06:49:00,56.6,51.0,30.08,ESE,104,2.0,2.0,80,0.00,,,0.00,weatherlink.com 1.10,2013-02-03 14:49:00,
2013-02-03 07:00:00,60.8,51.3,30.09,ESE,109,3.0,5.0,71,0.00,,---,0.00,VWS V14.00,2013-02-03 15:00:00,
2013-02-03 07:02:00,56.8,50.4,30.08,ENE,72,2.0,2.0,79,0.00,,---,0.00,VWS V14.00,2013-02-03 15:02:00,
2013-02-03 07:23:00,57.5,51.0,30.08,SE,135,2.0,4.0,78,0.00,,,0.00,weatherlink.com 1.10,2013-02-03 15:23:00,
2013-02-03 07:30:00,60.8,51.3,30.09,ESE,119,3.0,4.0,71,0.00,,---,0.00,VWS V14.00,2013-02-03 15:30:00,
2013-02-03 07:32:00,57.5,50.4,30.08,ESE,119,1.0,4.0,77,0.00,,---,0.00,VWS V14.00,2013-02-03 15:32:00,
2013-02-03 07:41:00,57.8,51.0,30.08,East,98,1.0,3.0,77,0.00,,,0.00,weatherlink.com 1.10,2013-02-03 15:41:00,
2013-02-03 07:58:00,60.7,51.0,30.09,ESE,117,3.0,5.0,71,0.00,,,0.00,weatherlink.com 1.10,2013-02-03 15:58:00,
2013-02-03 08:00:00,64.3,49.7,30.09,ESE,107,1.0,5.0,59,0.00,,---,0.00,VWS V14.00,2013-02-03 16:00:00,
2013-02-03 08:02:00,60.8,51.3,30.09,ESE,109,3.0,5.0,71,0.00,,---,0.00,VWS V14.00,2013-02-03 16:02:00,
2013-02-03 08:16:00,61.1,51.0,30.09,ESE,110,2.0,4.0,70,0.00,,,0.00,weatherlink.com 1.10,2013-02-03 16:16:00,
2013-02-03 08:30:00,67.5,49.8,30.09,ESE,107,0.0,4.0,53,0.00,,---,0.00,VWS V14.00,2013-02-03 16:30:00,
2013-02-03 08:32:00,60.8,51.3,30.09,ESE,119,3.0,4.0,71,0.00,,---,0.00,VWS V14.00,2013-02-03 16:32:00,
2013-02-03 08:50:00,63.0,51.0,30.09,East,96,5.0,6.0,64,0.00,,,0.00,weatherlink.com 1.10,2013-02-03 16:50:00,
2013-02-03 09:00:00,68.4,49.6,30.09,SE,143,1.0,4.0,51,0.00,,---,0.00,VWS V14.00,2013-02-03 17:00:00,
2013-02-03 09:02:00,64.3,49.7,30.09,ESE,107,1.0,5.0,59,0.00,,---,0.00,VWS V14.00,2013-02-03 17:02:00,
2013-02-03 09:07:00,65.3,49.0,30.09,ESE,118,2.0,4.0,57,0.00,,,0.00,weatherlink.com 1.10,2013-02-03 17:07:00,
2013-02-03 09:25:00,66.6,49.0,30.09,SSE,155,2.0,4.0,54,0.00,,,0.00,weatherlink.com 1.10,2013-02-03 17:25:00,
2013-02-03 09:30:00,66.9,51.2,30.09,SW,221,2.0,5.0,57,0.00,,---,0.00,VWS V14.00,2013-02-03 17:30:00,
2013-02-03 09:32:00,67.5,49.8,30.09,ESE,107,0.0,4.0,53,0.00,,---,0.00,VWS V14.00,2013-02-03 17:32:00,
2013-02-03 09:41:00,68.4,49.0,30.09,SSE,151,1.0,3.0,51,0.00,,,0.00,weatherlink.com 1.10,2013-02-03 17:41:00,
2013-02-03 09:59:00,68.4,49.0,30.08,SSE,164,1.0,4.0,51,0.00,,,0.00,weatherlink.com 1.10,2013-02-03 17:59:00,
2013-02-03 10:00:00,63.5,53.9,30.08,WSW,238,3.0,5.0,71,0.00,,---,0.00,VWS V14.00,2013-02-03 18:00:00,
2013-02-03 10:02:00,68.4,49.6,30.09,SE,143,1.0,4.0,51,0.00,,---,0.00,VWS V14.00,2013-02-03 18:02:00,
2013-02-03 10:17:00,67.8,49.0,30.09,SSE,152,3.0,4.0,51,0.00,,,0.00,weatherlink.com 1.10,2013-02-03 18:17:00,
2013-02-03 10:30:00,61.8,53.1,30.07,WSW,257,3.0,7.0,73,0.00,,---,0.00,VWS V14.00,2013-02-03 18:30:00,
2013-02-03 10:32:00,66.9,51.2,30.09,SW,221,2.0,5.0,57,0.00,,---,0.00,VWS V14.00,2013-02-03 18:32:00,
2013-02-03 10:34:00,66.7,49.0,30.09,WSW,242,0.0,5.0,54,0.00,,,0.00,weatherlink.com 1.10,2013-02-03 18:34:00,
2013-02-03 10:51:00,64.8,54.0,30.09,West,271,4.0,5.0,69,0.00,,,0.00,weatherlink.com 1.10,2013-02-03 18:51:00,
2013-02-03 11:00:00,61.7,52.6,30.06,WNW,297,7.0,10.0,72,0.00,,---,0.00,VWS V14.00,2013-02-03 19:00:00,
2013-02-03 11:02:00,63.5,53.9,30.08,WSW,238,3.0,5.0,71,0.00,,---,0.00,VWS V14.00,2013-02-03 19:02:00,
2013-02-03 11:08:00,63.4,53.0,30.08,West,266,4.0,5.0,70,0.00,,,0.00,weatherlink.com 1.10,2013-02-03 19:08:00,
2013-02-03 11:25:00,62.0,53.0,30.07,WSW,254,6.0,7.0,73,0.00,,,0.00,weatherlink.com 1.10,2013-02-03 19:25:00,
2013-02-03 11:30:00,61.7,51.8,30.04,NW,304,6.0,11.0,70,0.00,,---,0.00,VWS V14.00,2013-02-03 19:30:00,
2013-02-03 11:32:00,61.8,53.1,30.07,WSW,257,3.0,7.0,73,0.00,,---,0.00,VWS V14.00,2013-02-03 19:32:00,
2013-02-03 11:42:00,61.7,53.0,30.07,WNW,284,4.0,10.0,73,0.00,,,0.00,weatherlink.com 1.10,2013-02-03 19:42:00,
2013-02-03 12:00:00,61.7,54.0,30.06,WNW,298,4.0,10.0,75,0.00,,,0.00,weatherlink.com 1.10,2013-02-03 20:00:00,
2013-02-03 12:02:00,61.7,52.6,30.06,WNW,297,7.0,10.0,72,0.00,,---,0.00,VWS V14.00,2013-02-03 20:02:00,
2013-02-03 12:17:00,62.2,51.0,30.05,WSW,258,9.0,11.0,67,0.00,,,0.00,weatherlink.com 1.10,2013-02-03 20:17:00,
2013-02-03 12:30:00,60.9,52.9,30.02,West,277,5.0,11.0,75,0.00,,---,0.00,VWS V14.00,2013-02-03 20:30:00,
2013-02-03 12:32:00,61.7,51.8,30.04,NW,304,6.0,11.0,70,0.00,,---,0.00,VWS V14.00,2013-02-03 20:32:00,
2013-02-03 12:52:00,61.1,52.0,30.03,West,265,5.0,12.0,71,0.00,,,0.00,weatherlink.com 1.10,2013-02-03 20:52:00,
2013-02-03 13:00:00,61.3,53.0,30.01,WNW,290,4.0,11.0,74,0.00,,---,0.00,VWS V14.00,2013-02-03 21:00:00,
2013-02-03 13:02:00,60.9,51.8,30.03,WNW,292,5.0,12.0,72,0.00,,---,0.00,VWS V14.00,2013-02-03 21:02:00,
2013-02-03 13:09:00,60.9,52.0,30.03,West,269,9.0,11.0,73,0.00,,,0.00,weatherlink.com 1.10,2013-02-03 21:09:00,
2013-02-03 13:27:00,60.7,52.0,30.02,West,281,4.0,10.0,74,0.00,,,0.00,weatherlink.com 1.10,2013-02-03 21:27:00,
2013-02-03 13:30:00,62.3,49.6,30.01,West,281,6.0,12.0,63,0.00,,---,0.00,VWS V14.00,2013-02-03 21:30:00,
2013-02-03 13:32:00,60.9,52.9,30.02,West,277,5.0,11.0,75,0.00,,---,0.00,VWS V14.00,2013-02-03 21:32:00,
2013-02-03 13:44:00,60.7,52.0,30.02,WNW,295,6.0,10.0,74,0.00,,,0.00,weatherlink.com 1.10,2013-02-03 21:44:00,
2013-02-03 14:00:00,63.7,47.7,30.01,WNW,295,5.0,11.0,56,0.00,,---,0.00,VWS V14.00,2013-02-03 22:00:00,
2013-02-03 14:02:00,61.3,53.0,30.01,WNW,290,3.0,10.0,74,0.00,,,0.00,weatherlink.com 1.10,2013-02-03 22:02:00,
2013-02-03 14:19:00,61.4,52.0,30.01,West,276,6.0,10.0,71,0.00,,,0.00,weatherlink.com 1.10,2013-02-03 22:19:00,
2013-02-03 14:30:00,64.0,46.5,30.01,West,263,4.0,12.0,53,0.00,,---,0.00,VWS V14.00,2013-02-03 22:30:00,
2013-02-03 14:32:00,62.3,49.6,30.01,West,281,6.0,12.0,63,0.00,,---,0.00,VWS V14.00,2013-02-03 22:32:00,
2013-02-03 14:36:00,62.6,49.0,30.01,WNW,294,7.0,12.0,61,0.00,,,0.00,weatherlink.com 1.10,2013-02-03 22:36:00,
2013-02-03 14:53:00,63.4,48.0,30.01,West,277,8.0,11.0,57,0.00,,,0.00,weatherlink.com 1.10,2013-02-03 22:53:00,
2013-02-03 15:00:00,61.7,49.8,30.01,West,281,6.0,13.0,65,0.00,,---,0.00,VWS V14.00,2013-02-03 23:00:00,
2013-02-03 15:02:00,63.7,47.7,30.01,WNW,295,5.0,11.0,56,0.00,,---,0.00,VWS V14.00,2013-02-03 23:02:00,
2013-02-03 15:11:00,64.3,47.0,30.01,WNW,286,9.0,11.0,54,0.00,,,0.00,weatherlink.com 1.10,2013-02-03 23:11:00,
2013-02-03 15:29:00,64.1,46.0,30.01,West,279,5.0,12.0,52,0.00,,,0.00,weatherlink.com 1.10,2013-02-03 23:29:00,
2013-02-03 15:30:00,60.8,49.8,30.01,WSW,252,6.0,9.0,67,0.00,,---,0.00,VWS V14.00,2013-02-03 23:30:00,
2013-02-03 15:32:00,64.0,46.5,30.01,West,263,4.0,12.0,53,0.00,,---,0.00,VWS V14.00,2013-02-03 23:32:00,
2013-02-03 15:45:00,63.1,47.0,30.01,WSW,245,6.0,13.0,57,0.00,,,0.00,weatherlink.com 1.10,2013-02-03 23:45:00,
2013-02-03 16:00:00,60.7,49.3,30.01,ENE,59,0.0,8.0,66,0.00,,---,0.00,VWS V14.00,2013-02-04 00:00:00,
2013-02-03 16:02:00,61.7,49.8,30.01,West,281,6.0,13.0,65,0.00,,---,0.00,VWS V14.00,2013-02-04 00:02:00,
2013-02-03 16:03:00,61.7,50.0,30.01,West,263,7.0,9.0,65,0.00,,,0.00,weatherlink.com 1.10,2013-02-04 00:03:00,
2013-02-03 16:20:00,60.9,50.0,30.01,West,281,8.0,9.0,68,0.00,,,0.00,weatherlink.com 1.10,2013-02-04 00:20:00,
2013-02-03 16:30:00,60.8,48.6,30.01,WNW,299,2.0,3.0,64,0.00,,---,0.00,VWS V14.00,2013-02-04 00:30:00,
2013-02-03 16:32:00,60.8,49.8,30.01,WSW,252,6.0,9.0,67,0.00,,---,0.00,VWS V14.00,2013-02-04 00:32:00,
2013-02-03 16:38:00,61.0,49.0,30.01,NW,326,4.0,8.0,65,0.00,,,0.00,weatherlink.com 1.10,2013-02-04 00:38:00,
2013-02-03 16:54:00,61.0,49.0,30.01,West,270,0.0,5.0,66,0.00,,,0.00,weatherlink.com 1.10,2013-02-04 00:54:00,
2013-02-03 17:00:00,60.2,48.0,30.01,East,86,0.0,2.0,64,0.00,,---,0.00,VWS V14.00,2013-02-04 01:00:00,
2013-02-03 17:02:00,60.7,49.3,30.01,ENE,59,0.0,8.0,66,0.00,,---,0.00,VWS V14.00,2013-02-04 01:02:00,
2013-02-03 17:12:00,60.8,47.0,30.01,NW,314,0.0,3.0,61,0.00,,,0.00,weatherlink.com 1.10,2013-02-04 01:12:00,
2013-02-03 17:29:00,61.0,49.0,30.01,West,275,1.0,3.0,64,0.00,,,0.00,weatherlink.com 1.10,2013-02-04 01:29:00,
2013-02-03 17:30:00,60.5,44.7,30.02,SW,236,0.0,3.0,56,0.00,,---,0.00,VWS V14.00,2013-02-04 01:30:00,
2013-02-03 17:32:00,60.8,48.6,30.01,WNW,299,2.0,3.0,64,0.00,,---,0.00,VWS V14.00,2013-02-04 01:32:00,
2013-02-03 17:46:00,60.0,48.0,30.01,WNW,299,0.0,1.0,64,0.00,,,0.00,weatherlink.com 1.10,2013-02-04 01:46:00,
2013-02-03 18:00:00,59.8,45.0,30.02,WSW,238,0.0,0.0,58,0.00,,---,0.00,VWS V14.00,2013-02-04 02:00:00,
2013-02-03 18:02:00,60.2,48.0,30.01,East,86,0.0,2.0,64,0.00,,---,0.00,VWS V14.00,2013-02-04 02:02:00,
2013-02-03 18:03:00,60.0,48.0,30.01,East,86,0.0,1.0,65,0.00,,,0.00,weatherlink.com 1.10,2013-02-04 02:03:00,
2013-02-03 18:21:00,59.9,45.0,30.02,East,80,0.0,0.0,59,0.00,,,0.00,weatherlink.com 1.10,2013-02-04 02:21:00,
2013-02-03 18:30:00,57.8,46.9,30.03,East,88,0.0,2.0,67,0.00,,---,0.00,VWS V14.00,2013-02-04 02:30:00,
2013-02-03 18:32:00,60.5,44.7,30.02,SW,236,0.0,3.0,56,0.00,,---,0.00,VWS V14.00,2013-02-04 02:32:00,
2013-02-03 18:38:00,60.4,46.0,30.02,SW,229,0.0,2.0,59,0.00,,,0.00,weatherlink.com 1.10,2013-02-04 02:38:00,
2013-02-03 18:55:00,59.9,44.0,30.03,SW,229,0.0,1.0,57,0.00,,,0.00,weatherlink.com 1.10,2013-02-04 02:55:00,
2013-02-03 19:00:00,58.5,45.1,30.03,NNE,28,0.0,0.0,61,0.00,,---,0.00,VWS V14.00,2013-02-04 03:00:00,
2013-02-03 19:02:00,59.8,45.0,30.02,WSW,238,0.0,0.0,58,0.00,,---,0.00,VWS V14.00,2013-02-04 03:02:00,
2013-02-03 19:13:00,59.1,45.0,30.02,SE,142,0.0,2.0,59,0.00,,,0.00,weatherlink.com 1.10,2013-02-04 03:13:00,
2013-02-03 19:29:00,57.9,47.0,30.02,East,89,0.0,2.0,66,0.00,,,0.00,weatherlink.com 1.10,2013-02-04 03:29:00,
2013-02-03 19:30:00,56.8,48.2,30.04,SW,225,0.0,3.0,73,0.00,,---,0.00,VWS V14.00,2013-02-04 03:30:00,
2013-02-03 19:47:00,57.6,47.0,30.03,East,80,0.0,0.0,67,0.00,,,0.00,weatherlink.com 1.10,2013-02-04 03:47:00,
2013-02-03 20:00:00,55.0,46.5,30.04,ESE,107,1.0,3.0,73,0.00,,---,0.00,VWS V14.00,2013-02-04 04:00:00,
2013-02-03 20:02:00,58.5,45.1,30.03,NNE,28,0.0,0.0,61,0.00,,---,0.00,VWS V14.00,2013-02-04 04:02:00,
2013-02-03 20:04:00,58.3,46.0,30.03,SE,138,0.0,0.0,64,0.00,,,0.00,weatherlink.com 1.10,2013-02-04 04:04:00,
2013-02-03 20:21:00,56.8,46.0,30.04,SSW,197,2.0,3.0,67,0.00,,,0.00,weatherlink.com 1.10,2013-02-04 04:21:00,
2013-02-03 20:30:00,54.2,46.8,30.04,East,94,0.0,3.0,76,0.00,,---,0.00,VWS V14.00,2013-02-04 04:30:00,
2013-02-03 20:32:00,56.8,48.2,30.04,SW,225,0.0,3.0,73,0.00,,---,0.00,VWS V14.00,2013-02-04 04:32:00,
2013-02-03 20:38:00,56.6,48.0,30.04,SW,225,0.0,2.0,73,0.00,,,0.00,weatherlink.com 1.10,2013-02-04 04:38:00,
2013-02-03 20:56:00,55.5,47.0,30.04,ESE,117,0.0,3.0,73,0.00,,,0.00,weatherlink.com 1.10,2013-02-04 04:56:00,
2013-02-03 21:00:00,53.0,46.0,30.04,ESE,105,2.0,3.0,77,0.00,,---,0.00,VWS V14.00,2013-02-04 05:00:00,
2013-02-03 21:02:00,55.0,46.5,30.04,ESE,107,1.0,3.0,73,0.00,,---,0.00,VWS V14.00,2013-02-04 05:02:00,
2013-02-03 21:12:00,54.4,46.0,30.04,East,100,0.0,1.0,74,0.00,,,0.00,weatherlink.com 1.10,2013-02-04 05:12:00,
2013-02-03 21:30:00,54.2,47.0,30.04,East,94,0.0,0.0,76,0.00,,,0.00,weatherlink.com 1.10,2013-02-04 05:30:00,
2013-02-03 21:32:00,54.2,46.8,30.04,East,94,0.0,3.0,76,0.00,,---,0.00,VWS V14.00,2013-02-04 05:32:00,
2013-02-03 21:48:00,54.5,47.0,30.04,East,94,0.0,0.0,75,0.00,,,0.00,weatherlink.com 1.10,2013-02-04 05:48:00,
2013-02-03 22:00:00,52.0,45.7,30.04,ESE,119,0.0,4.0,79,0.00,,---,0.00,VWS V14.00,2013-02-04 06:00:00,
2013-02-03 22:02:00,53.0,46.0,30.04,ESE,105,2.0,3.0,77,0.00,,---,0.00,VWS V14.00,2013-02-04 06:02:00,
2013-02-03 22:22:00,52.4,46.0,30.04,SE,126,0.0,2.0,78,0.00,,,0.00,weatherlink.com 1.10,2013-02-04 06:22:00,
2013-02-03 22:30:00,51.4,45.5,30.04,SE,128,0.0,4.0,80,0.00,,---,0.00,VWS V14.00,2013-02-04 06:30:00,
2013-02-03 22:32:00,52.6,46.0,30.04,ESE,119,2.0,3.0,78,0.00,,---,0.00,VWS V14.00,2013-02-04 06:32:00,
2013-02-03 22:39:00,52.7,46.0,30.04,East,94,1.0,4.0,78,0.00,,,0.00,weatherlink.com 1.10,2013-02-04 06:39:00,
2013-02-03 22:56:00,52.4,46.0,30.04,ESE,123,0.0,3.0,78,0.00,,,0.00,weatherlink.com 1.10,2013-02-04 06:56:00,
2013-02-03 23:00:00,50.8,45.2,30.04,East,84,0.0,3.0,81,0.00,,---,0.00,VWS V14.00,2013-02-04 07:00:00,
2013-02-03 23:02:00,52.0,45.7,30.04,ESE,119,0.0,4.0,79,0.00,,---,0.00,VWS V14.00,2013-02-04 07:02:00,
2013-02-03 23:14:00,51.5,46.0,30.04,ESE,117,2.0,3.0,81,0.00,,,0.00,weatherlink.com 1.10,2013-02-04 07:14:00,
2013-02-03 23:30:00,49.1,44.5,30.04,ESE,108,0.0,2.0,84,0.00,,---,0.00,VWS V14.00,2013-02-04 07:30:00,
2013-02-03 23:31:00,51.5,46.0,30.04,SE,130,0.0,4.0,80,0.00,,,0.00,weatherlink.com 1.10,2013-02-04 07:31:00,
2013-02-03 23:32:00,51.4,45.5,30.04,SE,128,0.0,4.0,80,0.00,,---,0.00,VWS V14.00,2013-02-04 07:32:00,
2013-02-03 23:48:00,50.8,46.0,30.04,ESE,111,0.0,3.0,82,0.00,,,0.00,weatherlink.com 1.10,2013-02-04 07:48:00,